ISS
1 25544U 98067A 10087.00051365 .00023257 00000-0 16399-3 0 8568
2 25544 051.6441 287.3974 0006569 114.6728 048.8749 15.73940784650681
CO-58
1 28895U 05043F 10086.14541900 .00000175 00000-0 45967-4 0 5458
2 28895 098.0263 333.2893 0017867 179.1293 180.9928 14.59864978235013
FALCON
1 30776U 07006E 10086.60945769 .00001064 00000-0 79392-4 0 7945
2 30776 035.4329 179.5309 0001095 263.4416 096.6176 15.03550732167770
MAST
1 31126U 07012K 10084.79233653 .00000041 00000-0 19463-4 0 8276
2 31126 097.9492 131.0793 0095548 124.9066 236.1129 14.53566380155947
CAPE1
1 31130U 07012P 10086.07224037 .00000331 00000-0 86467-4 0 8472
2 31130 097.9482 129.8673 0103353 128.2885 232.7661 14.52152026155741
COMPASS
1 32787U 08021E 10086.19409217 .00000216 00000-0 34086-4 0 6290
2 32787 097.9006 152.0535 0015602 188.4603 171.6383 14.81801199103358
AAUSAT2
1 32788U 08021F 10086.40751482 .00000640 00000-0 87287-4 0 6246
2 32788 097.9051 152.3767 0015613 186.8912 173.2268 14.81940691103391
DO-64
1 32789U 08021G 10086.08555229 .00001082 00000-0 14271-3 0 6391
2 32789 097.9080 152.4419 0015629 187.7096 172.3900 14.82034654103341
CO-66
1 32791U 08021J 10085.93426777 .00000089 00000-0 18011-4 0 6205
2 32791 097.9025 151.8205 0015492 187.9017 172.1961 14.81598515103279
RS-30
1 32953U 08025A 10086.91541677 .00000010 00000-0 00000 0 0 5583
2 32953 082.4966 080.2156 0017432 281.8331 078.0795 12.43004496 83644
TACSAT-3
1 35001U 09028A 10086.15385823 .00006867 00000-0 16750-3 0 2473
2 35001 040.4582 346.5899 0020290 110.8621 249.4369 15.40898743 47973
PHARMSAT
1 35002U 09028B 10085.87840848 .00006038 00000-0 14481-3 0 2340
2 35002 040.4716 346.5609 0023319 113.5682 246.7582 15.41495138 47940
HAWKSAT1
1 35003U 09028C 10086.12618429 .00012103 00000-0 26428-3 0 2498
2 35003 040.4648 341.9752 0021549 126.7583 233.5214 15.43707243 48023
CP6
1 35004U 09028D 10086.80668224 .00014479 00000-0 30952-3 0 2420
2 35004 040.4634 337.4568 0020410 132.7397 227.5153 15.44248288 48126
AEROCUB3
1 35005U 09028E 10086.08240581 .00030629 00000-0 60789-3 0 2586
2 35005 040.4768 341.9772 0017676 130.7388 229.4966 15.46144193 48013
DRAGNSAT
1 35690U 09038B 10076.22711312 .05715194 12509-4 31481-3 0 3162
2 35690 051.6170 315.4586 0004999 310.9891 057.3269 16.42150010 36561
POLLUX
1 35693U 09038E 10085.91699132 .01498737 12093-4 35950-3 0 3515
2 35693 051.6247 266.2346 0007410 311.5608 051.0772 16.28668914 38057
CASTOR
1 35694U 09038F 10086.90666055 .00054193 12253-4 17657-3 0 2451
2 35694 051.6370 271.7158 0003790 232.9034 127.1627 15.91173805 38078
METEOR-M
1 35865U 09049A 10086.15126556 .00000176 00000-0 10000-3 0 1591
2 35865 098.7684 140.5016 0001647 234.8739 125.2228 14.21829257 27060
RS-38
1 35869U 09049E 10086.13146561 .00000176 00000-0 10000-3 0 1625
2 35869 098.7670 140.5077 0003742 239.4830 120.5940 14.21977911 27067
